[[{"header":{"parameterUnit":"m.s-1","parameterCategory":1,"la1":30.2991,"la2":30.254,"lo1":-89.0895,"lo2":-89.0444,"dy":0.0017,"dx":0.0017,"nx":28,"ny":28,"refTime":"2025-09-19T03:00:00:Z","depth":0,"parameterNumber":2,"parameterNumberName":"U-component_of_WINDS"},"data":[0,0,0,0,0,0,0,0,0,0,0,0,0,0,0,0,0,0,0,0,0,0,0,0,0,0,0,0,0,0,0,0,0,0,0,0,0,0,0,0,0,0,0,0,0,0,0,0,0,0,0,0,0,0,0,0,0,0,1.5901,1.5903,0,1.6071,1.6073,1.6075,1.6099,1.6097,1.6095,1.6094,1.6273,1.6279,1.6285,0,0,0,0,0,0,0,0,0,0,0,0,0,1.5598,1.5604,1.5901,1.5903,1.5905,1.6071,1.6073,1.6076,1.6099,1.6097,1.6095,1.6093,1.6271,1.6278,1.6286,0,0,0,0,0,0,0,0,0,0,0,0,0,1.5745,1.5606,1.59,1.5936,1.5941,1.607,1.6073,1.6076,1.6099,1.6097,1.6094,1.6092,1.6268,1.6277,1.6287,1.6393,0,0,1.6315,1.6319,0,0,0,0,0,0,0,0,1.5737,1.5757,1.5929,1.5934,1.594,1.6061,1.6032,1.6183,1.61,1.6039,1.6094,1.6091,1.6205,1.6219,1.6256,1.6401,1.6409,1.6316,1.6322,1.6326,1.6329,0,0,0,0,0,0,0,1.5727,1.5749,1.5968,1.5932,1.5938,1.5945,1.5963,1.6061,1.6134,1.6045,1.6047,1.6066,1.6207,1.6247,1.6261,1.6412,1.6316,1.6324,1.633,1.6334,1.665,1.6653,0,0,0,0,0,0,1.571,1.5741,1.5963,1.5973,1.583,1.5952,1.5973,1.6025,1.6133,1.6147,1.6068,1.6067,1.6232,1.625,1.6267,1.6397,1.6326,1.6335,1.634,1.6647,1.6651,1.6654,0,0,0,0,0,0,1.5703,1.5729,1.5956,1.5858,1.5887,1.596,1.6018,1.6029,1.6069,1.615,1.6164,1.6096,1.6231,1.6254,1.6361,1.6404,1.6339,1.6347,1.6644,1.6649,1.6652,1.6658,0,0,0,0,0,0,1.5694,1.5727,1.5767,1.5858,1.5892,1.6046,1.6021,1.6034,1.6085,1.6085,1.618,1.6193,1.6231,1.6346,1.637,1.6415,1.6355,1.6641,1.6646,1.6651,1.6655,1.6662,1.6669,0,0,0,0,0,1.5683,1.5763,1.5769,1.5796,1.5944,1.6048,1.6068,1.6108,1.6088,1.613,1.6182,1.619,1.6395,1.6357,1.6384,1.6433,1.6638,1.6645,1.6651,1.6651,1.6661,1.6668,0,0,0,0,0,0,1.5677,1.5776,1.5783,1.5895,1.5963,1.6052,1.6105,1.6117,1.6193,1.619,1.6239,1.626,1.6364,1.641,1.6365,1.654,1.6515,1.6527,1.6506,1.6516,1.6523,1.6509,1.6363,0,0,0,0,0,1.5688,1.5764,1.5847,1.5937,1.5971,1.6032,1.6079,1.6104,1.6177,1.6206,1.6266,1.6337,1.6417,1.6469,1.6548,1.6662,1.6682,1.6708,1.6715,1.672,1.673,1.6792,1.6804,1.6674,1.6674,1.6674,0,0,1.5713,1.5777,1.5821,1.5938,1.5993,1.607,1.6056,1.6139,1.6197,1.6219,1.6323,1.6369,1.6452,1.6561,1.6613,1.6603,1.677,1.6728,1.6732,1.6739,1.6799,1.6811,1.6822,1.6679,1.6678,1.6677,0,0,1.5797,1.5853,1.5934,1.5989,1.6072,1.6113,1.6132,1.6219,1.625,1.6354,1.6372,1.6442,1.658,1.6638,1.6685,1.6789,1.6799,1.6814,1.685,1.6909,1.6919,1.6929,1.6964,1.6977,1.6823,1.6823,1.6823,0,1.5818,1.5934,1.5974,1.6056,1.6106,1.6128,1.621,1.6262,1.6368,1.6402,1.6389,1.656,1.6618,1.674,1.6765,1.6804,1.6827,1.6803,1.6914,1.6924,1.6933,1.6968,1.6981,1.6824,1.6824,1.6824,1.6824,0,1.5954,1.6034,1.609,1.6188,1.6245,1.6326,1.638,1.6432,1.6452,1.6494,1.6599,1.6669,1.6761,1.6792,1.6814,1.6918,1.6908,1.6904,1.688,1.6946,1.6979,1.6993,1.6825,1.6825,1.6825,1.6825,0,0,1.6039,1.6158,1.6177,1.6222,1.6315,1.6378,1.646,1.6548,1.6592,1.6664,1.6734,1.6849,1.6845,1.6898,1.6927,1.6979,1.7055,1.6969,1.6971,1.6981,1.7172,1.7173,1.7188,1.7062,1.7065,1.7067,1.7164,0,1.6133,1.6278,1.6316,1.644,1.6514,1.6536,1.6608,1.6672,1.6713,1.6783,1.6829,1.6909,1.6898,1.693,1.6983,1.7034,1.7094,1.7028,1.7128,1.7131,1.7104,1.7205,1.7208,1.7295,1.7178,1.718,1.7181,0,1.6261,1.6333,1.6464,1.6545,1.6578,1.6641,1.6724,1.679,1.6864,1.6891,1.6949,1.6972,1.7059,1.703,1.715,1.7104,1.7148,1.7179,1.7183,1.7193,1.7159,1.7216,1.7325,1.7337,1.7203,1.7201,1.7199,0,1.6308,1.6438,1.6532,1.657,1.6668,1.6712,1.6755,1.6826,1.6876,1.695,1.6982,1.7065,1.7111,1.7175,1.7219,1.7194,1.7335,1.731,1.7359,1.7357,1.7386,1.7384,1.7501,1.7417,1.7416,1.7416,1.7416,0,1.6407,1.6486,1.6554,1.6612,1.67,1.6744,1.6831,1.6875,1.6938,1.7005,1.7031,1.7093,1.7149,1.7219,1.7255,1.7348,1.7369,1.7392,1.74,1.7389,1.7386,1.7417,1.7412,1.742,1.7419,1.7418,1.7418,0,1.6474,1.6523,1.6626,1.671,1.6733,1.6795,1.6867,1.6924,1.6965,1.705,1.7072,1.7138,1.7221,1.7272,1.7379,1.7403,1.7505,1.7512,1.7479,1.7483,1.7527,1.7522,1.7669,1.7689,1.7592,1.7592,1.7593,0,1.6533,1.6594,1.6683,1.6729,1.6772,1.6846,1.6897,1.6942,1.6994,1.7082,1.7128,1.7213,1.7284,1.7417,1.7474,1.7556,1.7564,1.761,1.7576,1.7562,1.7562,1.7557,1.7563,1.7615,1.7615,1.7616,1.7617,0,1.6633,1.6653,1.6725,1.6804,1.6863,1.6928,1.6993,1.703,1.7086,1.7143,1.7228,1.7282,1.739,1.7474,1.756,1.7606,1.7621,1.7627,1.7642,1.763,1.7608,1.7619,1.7493,1.7623,1.7622,1.7622,1.7622,1.7621,1.6697,1.6751,1.6821,1.69,1.6953,1.7013,1.707,1.7117,1.7189,1.7278,1.7302,1.739,1.7462,1.7579,1.7626,1.7696,1.7689,1.7712,1.7717,1.7722,1.7722,1.7597,1.7713,1.7713,1.7712,1.7712,1.7712,0,1.6796,1.6842,1.6913,1.7002,1.7064,1.7071,1.7143,1.7194,1.7271,1.7337,1.7404,1.7501,1.7582,1.7645,1.7729,1.7773,1.7781,1.7793,1.7789,1.7799,1.7724,1.7702,1.7784,1.7784,1.7784,1.7784,1.7784,1.7784,1.6854,1.6946,1.6975,1.7092,1.7139,1.7225,1.7265,1.732,1.7372,1.7478,1.7545,1.7585,1.7649,1.7737,1.7812,1.7828,1.7857,1.7867,1.7884,1.7813,1.7805,1.7797,1.7776,1.7873,1.7873,1.7954,1.7954,1.7955]},{"header":{"parameterUnit":"m.s-1","parameterCategory":1,"la1":30.2991,"la2":30.254,"lo1":-89.0895,"lo2":-89.0444,"dy":0.0017,"dx":0.0017,"nx":28,"ny":28,"refTime":"2025-09-19T03:00:00:Z","depth":0,"parameterNumber":3,"parameterNumberName":"V-component_of_WINDS"},"data":[0,0,0,0,0,0,0,0,0,0,0,0,0,0,0,0,0,0,0,0,0,0,0,0,0,0,0,0,0,0,0,0,0,0,0,0,0,0,0,0,0,0,0,0,0,0,0,0,0,0,0,0,0,0,0,0,0,0,3.0074,3.0074,0,3.0082,3.0082,3.0082,3.0062,3.0061,3.0061,3.006,3.0066,3.0066,3.0067,0,0,0,0,0,0,0,0,0,0,0,0,0,3.0037,3.0038,3.0074,3.0074,3.0074,3.0082,3.0082,3.0082,3.0062,3.0061,3.006,3.006,3.0065,3.0066,3.0067,0,0,0,0,0,0,0,0,0,0,0,0,0,3.005,3.0038,3.0074,3.0065,3.0064,3.0082,3.0082,3.0082,3.0062,3.0061,3.006,3.0059,3.0065,3.0066,3.0067,3.0093,0,0,3.0071,3.0071,0,0,0,0,0,0,0,0,3.0049,3.0051,3.0066,3.0066,3.0065,3.007,3.0071,3.0085,3.0062,3.0063,3.006,3.0059,3.0068,3.0068,3.0072,3.0093,3.0093,3.0071,3.0071,3.0072,3.0072,0,0,0,0,0,0,0,3.0048,3.0051,3.0077,3.0066,3.0066,3.0059,3.006,3.0073,3.007,3.0063,3.0061,3.0063,3.0067,3.0071,3.0072,3.0093,3.0071,3.0072,3.0072,3.0073,3.0131,3.0131,0,0,0,0,0,0,3.0049,3.005,3.0077,3.0077,3.0055,3.0061,3.0062,3.0069,3.007,3.0069,3.0063,3.0062,3.0069,3.0071,3.0072,3.0098,3.0072,3.0073,3.0073,3.013,3.0131,3.0132,0,0,0,0,0,0,3.0048,3.0052,3.0076,3.0063,3.0066,3.0062,3.0071,3.007,3.0074,3.0071,3.007,3.0068,3.0069,3.007,3.0087,3.0098,3.0073,3.0074,3.0129,3.013,3.0131,3.0154,0,0,0,0,0,0,3.0047,3.0052,3.0062,3.0064,3.0067,3.0092,3.0072,3.0071,3.0076,3.0074,3.0075,3.0074,3.0068,3.0085,3.0088,3.01,3.0075,3.0128,3.0129,3.0131,3.0152,3.0156,3.0159,0,0,0,0,0,3.0046,3.0069,3.0063,3.0066,3.008,3.0093,3.0095,3.0088,3.0077,3.0086,3.0084,3.0074,3.0097,3.0087,3.009,3.0102,3.0127,3.0129,3.0131,3.015,3.0155,3.0159,0,0,0,0,0,0,3.0069,3.0069,3.0063,3.0087,3.009,3.009,3.0102,3.0094,3.01,3.0098,3.0088,3.0089,3.0106,3.0106,3.0095,3.0124,3.011,3.0112,3.0124,3.0128,3.0132,3.013,3.0076,0,0,0,0,0,3.0077,3.0089,3.0087,3.0109,3.0111,3.0106,3.0111,3.0106,3.0109,3.011,3.0109,3.0111,3.0118,3.0124,3.0131,3.0152,3.015,3.0162,3.0165,3.0168,3.017,3.0178,3.0182,3.0138,3.0138,3.0138,0,0,3.0093,3.0095,3.0103,3.0113,3.0115,3.0125,3.0107,3.012,3.0127,3.0112,3.0126,3.0125,3.0127,3.0145,3.0153,3.0146,3.0182,3.0171,3.0173,3.0173,3.018,3.0184,3.0188,3.014,3.0139,3.0139,0,0,3.0128,3.0131,3.0147,3.0149,3.0152,3.0149,3.0152,3.0153,3.0152,3.0166,3.0154,3.0162,3.0176,3.0176,3.0178,3.021,3.0199,3.0212,3.023,3.0238,3.0241,3.0244,3.0252,3.0256,3.0214,3.0214,3.0214,0,3.0147,3.0163,3.0157,3.0169,3.0172,3.0159,3.0174,3.0176,3.0181,3.0183,3.0175,3.0189,3.019,3.0206,3.0213,3.0217,3.0219,3.0211,3.0241,3.0244,3.0247,3.0254,3.0258,3.0216,3.0216,3.0215,3.0215,0,3.0185,3.0196,3.0209,3.0213,3.0218,3.0232,3.0225,3.0231,3.0224,3.0221,3.0234,3.0234,3.0239,3.0243,3.0237,3.0258,3.0252,3.0243,3.0228,3.0252,3.0259,3.0262,3.0218,3.0217,3.0217,3.0216,0,0,3.0234,3.0233,3.0238,3.0238,3.0239,3.0247,3.0258,3.0264,3.0267,3.0271,3.0278,3.0289,3.0279,3.0282,3.0276,3.0283,3.0304,3.0272,3.0272,3.0276,3.0322,3.0328,3.0332,3.0298,3.0298,3.0299,3.0321,0,3.0265,3.0286,3.0279,3.0299,3.0307,3.0293,3.0303,3.0304,3.03,3.0306,3.0302,3.0308,3.0297,3.0298,3.0304,3.03,3.0313,3.0298,3.0302,3.0303,3.03,3.0336,3.0342,3.0364,3.0324,3.0325,3.0325,0,3.0304,3.0308,3.0329,3.0326,3.0329,3.0338,3.034,3.0346,3.0346,3.0343,3.0344,3.0336,3.0345,3.0331,3.0341,3.0332,3.0333,3.0331,3.0331,3.033,3.0314,3.0333,3.0371,3.0373,3.033,3.033,3.0329,0,3.0334,3.0345,3.0357,3.0359,3.0356,3.0362,3.0361,3.036,3.0363,3.0364,3.0365,3.0369,3.037,3.0371,3.0363,3.0354,3.0374,3.036,3.0369,3.0369,3.0373,3.0372,3.0409,3.0377,3.0377,3.0377,3.0377,0,3.0368,3.038,3.037,3.0378,3.039,3.0382,3.0394,3.0391,3.039,3.0395,3.0385,3.039,3.038,3.0383,3.0377,3.0385,3.0386,3.0382,3.038,3.0382,3.0382,3.0381,3.0379,3.0378,3.0378,3.0378,3.0378,0,3.0402,3.0397,3.0409,3.0405,3.0404,3.0413,3.0409,3.0415,3.0411,3.0418,3.0419,3.0411,3.0415,3.0407,3.041,3.0405,3.0416,3.0413,3.0416,3.0414,3.0423,3.0422,3.0459,3.0463,3.0431,3.0431,3.0431,0,3.0423,3.0432,3.0429,3.0432,3.0431,3.0437,3.0438,3.043,3.0432,3.0431,3.0436,3.0439,3.044,3.0446,3.044,3.0441,3.0436,3.0449,3.0436,3.0437,3.0433,3.0432,3.0431,3.0451,3.0452,3.0452,3.0452,0,3.0459,3.0455,3.0459,3.0461,3.0464,3.0465,3.0466,3.0468,3.0459,3.0462,3.0465,3.0466,3.0468,3.047,3.0469,3.0467,3.0457,3.0456,3.0458,3.0459,3.046,3.0457,3.0421,3.0455,3.0455,3.0455,3.0455,3.0454,3.0486,3.0492,3.049,3.0493,3.0492,3.0493,3.0497,3.0493,3.0496,3.0496,3.0491,3.0495,3.0492,3.049,3.0488,3.049,3.0484,3.0487,3.0488,3.0488,3.0488,3.0461,3.049,3.049,3.049,3.049,3.049,0,3.0519,3.0516,3.052,3.052,3.0523,3.0514,3.0514,3.0516,3.0519,3.0518,3.0519,3.0521,3.0522,3.0516,3.0516,3.0518,3.0514,3.0519,3.0517,3.0516,3.0495,3.0492,3.0522,3.0522,3.0522,3.0522,3.0522,3.0522,3.0536,3.0545,3.0541,3.0548,3.0546,3.0549,3.0549,3.0548,3.0547,3.055,3.0551,3.0547,3.0543,3.0542,3.0542,3.054,3.0539,3.0545,3.0541,3.0521,3.0518,3.0515,3.0512,3.0546,3.0546,3.0562,3.0562,3.0562]}]]